NOAA NWS Hourly Roundups by Site

Regional Weather Roundup for Seattle, WA

To Select Another Site Choose from List

Select Site:  

000
ASUS46 KSEW 291520
RWRWA

WASHINGTON REGIONAL WEATHER ROUNDUP
NATIONAL WEATHER SERVICE SEATTLE WA
800 AM PDT SUN MAR 29 2020

NOTE:"FAIR" INDICATES FEW OR NO CLOUDS BELOW 12,000 FEET WITH NO
SIGNIFICANT WEATHER AND/OR OBSTRUCTIONS TO VISIBILITY.

WAZ507-509-555>559-291600-
SEATTLE, TACOMA, EVERETT, AND VICINITY

CITY           SKY/WX    TMP DP  RH WIND       PRES   REMARKS
EVERETT        PTSUNNY   45  41  86 S23G31    29.82R
BOEING FIELD   CLOUDY    47  43  86 S12       29.87R
RENTON         CLOUDY    45  43  93 S7        29.87R
SEATAC AIRPORT CLOUDY    46  43  89 S12       29.86R
JBLM-MCCHORD   CLOUDY    46  43  90 S8        29.88R
PUYALLUP       CLOUDY    45  45 100 S5        29.88S
BREMERTON      CLOUDY    44  43  96 S10       29.85R
JBLM-FT LEWIS  LGT RAIN  46  46 100 SE7       29.87R
TACOMA NARROWS LGT RAIN  44  42  93 S9        29.87R FOG
$$

WAZ001-503-506-510-514-515-291600-
NORTH INTERIOR

CITY           SKY/WX    TMP DP  RH WIND       PRES   REMARKS
BELLINGHAM     CLOUDY    45  39  79 S9        29.80S
FRIDAY HARBOR  FAIR      44  41  89 MISG      29.82R
EASTSOUND        N/A    N/A N/A N/A S7        29.80R
PORT ANGELES   CLOUDY    43  42  97 CALM      29.81R
EDIZ HOOK      DRIZZLE   45  41  88 W7        29.82R
PORT TOWNSEND  FOG       45  45 100 CALM      29.82R VSB 1
NAS WHIDBEY    CLOUDY    50  42  74 S3        29.86R
ARLINGTON      CLOUDY    46  42  86 S14       29.84R
BURLINGTON     CLOUDY    48  43  81 S8        29.82R
$$

WAZ020-022-039-040-504-511-512-291600-
SOUTHWEST INTERIOR

CITY           SKY/WX    TMP DP  RH WIND       PRES   REMARKS
SHELTON        CLOUDY    45  43  93 S9        29.84R
OLYMPIA        CLOUDY    45  43  93 SW8       29.88R
CHEHALIS       LGT RAIN  46  46 100 S6        29.89S
KELSO          LGT RAIN  47  46  97 SE6       29.93R
VANCOUVER      CLOUDY    49  44  83 S3        29.94R
SCAPPOOSE, OR  FAIR      46  44  93 N3        29.92S
PORTLAND, OR   CLOUDY    49  45  86 S8        29.94S
$$

WAZ021-516-517-291600-
WASHINGTON COAST

CITY           SKY/WX    TMP DP  RH WIND       PRES   REMARKS
FORKS          LGT RAIN  43  41  93 SW3       29.84R
HOQUIAM        CLOUDY    46  45  96 W9        29.87S
ASTORIA, OR    CLOUDY    47  45  93 SW7       29.90R
$$

WAZ019-023-024-040-567>569-291600-
CASCADE MOUNTAINS AND COLUMBIA GORGE

CITY           SKY/WX    TMP DP  RH WIND       PRES   REMARKS
STAMPEDE PASS  SNOW      33  31  92 CALM      29.78S VSB 1/4
TROUTDALE, OR  CLOUDY    50  44  80 SW6       29.95R
HOOD RIVER, OR LGT RAIN  43  43 100 CALM      29.94R
THE DALLES, OR CLOUDY    45  42  89 CALM      29.93R
$$

WAZ026-027-041>044-520-521-291600-
EAST SLOPES

CITY           SKY/WX    TMP DP  RH WIND       PRES   REMARKS
OMAK           CLOUDY    48  36  63 S9        29.77S
WENATCHEE      PTSUNNY   42  37  82 CALM      29.79R
ELLENSBURG     FAIR      42  36  79 NW6       29.80F
YAKIMA         PTSUNNY   48  35  60 S18G33    29.82S
SUNNYSIDE ARPT CLOUDY    48  40  72 S12       29.87S
YAKIMA TC      NOT AVBL
$$

WAZ028-034-035-291600-
COLUMBIA BASIN

CITY           SKY/WX    TMP DP  RH WIND       PRES   REMARKS
EPHRATA        CLOUDY    47  38  71 S9        29.80S
MOSES LAKE     PTSUNNY   49  38  65 S13       29.82R
PASCO          FAIR      52  40  63 SE6       29.90F
RICHLAND ARPT  PTSUNNY   51  40  67 CALM      29.89S
HERMISTON, OR  FAIR      48  43  82 CALM      29.90S
$$

WAZ036>038-291600-
NORTHEAST WASHINGTON

CITY           SKY/WX    TMP DP  RH WIND       PRES   REMARKS
SPOKANE GEIGER LGT RAIN  43  37  79 S16       29.84F
SPOKANE FELTS  CLOUDY    46  37  71 SW10G17   29.86S
FAIRCHILD AFB  LGT RAIN  41  41 100 S16G23    29.84R
COEURDALENE,ID LGT RAIN  42  40  92 SE8       29.87S
DEER PARK      CLOUDY    43  38  82 S9        29.85F
$$

WAZ029>033-291600-
SOUTHEAST WASHINGTON

CITY           SKY/WX    TMP DP  RH WIND       PRES   REMARKS
PULLMAN        LGT RAIN  43  39  86 SE8       29.91S
LEWISTON, ID   LGT RAIN  46  43  89 CALM      29.92R
WALLA WALLA    LGT RAIN  47  41  80 S14       29.91R
PENDLETON, OR  CLOUDY    47  41  80 S7        29.90S
$$


 

View Past Reports for Seattle, WA.

Products Courtesy of NOAA-NWS
NWS Information Parsing Script by Ken True at Saratoga Weather - Script by SE Lincoln Weather.